Location: Gull Harbor
(47.1000°N, 122.9000°W)
Time: 15:38:23
(UTC-07:00)

ISS - Pass Details

Date: 28 March 2019
Orbit: 408 x 410 km, 51.6° (Epoch: 23 April)

Event Time Altitude Azimuth Distance (km) Brightness Sun altitude
Rises 20:35:00 0° 272° (W) 2,335 1.8 -10.8°
Reaches altitude 10° 20:37:10 10° 280° (W) 1,475 0.6 -11.1°
Maximum altitude 20:40:18 39° 351° (N) 632 -2.6 -11.6°
Enters shadow 20:43:13 12° 61° (ENE) 1,388 -1.5 -12.1°
